QTR1F RJGG-KMIA

Flight info

Callsign QTR1F
Flight time N/A
Altitude 29000
Route KROBE Y13 MRE V13 TIKYU Y13 SIRAO V13 CHE Y116 AWE Y114 ANIMO/K0895F310 T565 ODORA L771 BUMAT P140 ASBAT/K0891F330 P140 PEMID L160 LISKI/N0479F330 NCA32 TAYTA DCT 70N125W 68N111W/N0481F350 66N099W 62N091W 58N084W 54N078W/N0477F360 DCT YVO DCT YWA DCT BUF DCT CEMAD DCT BUCKO DCT BURTT DCT GSO/N0474F380 DCT TENNI DCT VAN DCT TYDOE DCT TEUFL/N0469F370 DCT SHRKS DCT DEBRL CSTAL3
Aircraft B77W/H-SDE1E2E3FGHIJ2J3J4J5M1RWXY/LB1D1

Departure

Time N/A
Airport Chubu Centrair International Airport (RJGG)

Arrival

Time 2026-04-30 20:40
Airport Miami International Airport (KMIA)
Time Latitude Longitude Altitude Speed Heading
2026-04-30 19:53 29.31771 -81.14375 36914 ft 543 kts 162°
2026-04-30 19:53 29.28272 -81.12766 36924 ft 541 kts 164°
2026-04-30 19:54 29.21167 -81.10024 36898 ft 538 kts 167°
2026-04-30 19:54 29.14025 -81.07483 36909 ft 538 kts 167°
2026-04-30 19:55 29.06892 -81.04873 36923 ft 539 kts 166°
2026-04-30 19:55 28.99757 -81.02204 36915 ft 540 kts 166°
2026-04-30 19:56 28.92617 -80.99531 36902 ft 540 kts 166°
2026-04-30 19:56 28.85465 -80.96866 36902 ft 541 kts 166°
2026-04-30 19:57 28.78309 -80.94204 36914 ft 541 kts 166°
2026-04-30 19:57 28.71209 -80.91251 36918 ft 545 kts 161°
2026-04-30 19:58 28.64276 -80.87828 36912 ft 547 kts 160°
2026-04-30 19:58 28.57254 -80.84375 36926 ft 545 kts 160°
2026-04-30 19:59 28.50314 -80.81067 36945 ft 544 kts 161°
2026-04-30 20:00 28.39785 -80.76083 36934 ft 543 kts 161°
2026-04-30 20:00 28.32816 -80.72780 36918 ft 542 kts 161°
2026-04-30 20:01 28.22420 -80.67863 36926 ft 541 kts 161°
2026-04-30 20:01 28.15321 -80.65142 36933 ft 536 kts 169°
2026-04-30 20:02 28.04458 -80.62193 36904 ft 535 kts 170°
2026-04-30 20:03 27.94843 -80.59406 36879 ft 534 kts 169°
2026-04-30 20:03 27.91267 -80.58334 36435 ft 529 kts 169°
2026-04-30 20:03 27.87728 -80.57268 35825 ft 524 kts 169°
2026-04-30 20:04 27.84220 -80.56212 35250 ft 519 kts 169°
2026-04-30 20:04 27.80741 -80.55168 34702 ft 514 kts 169°
2026-04-30 20:04 27.77294 -80.54136 34113 ft 511 kts 169°
2026-04-30 20:05 27.70470 -80.52098 32965 ft 501 kts 169°
2026-04-30 20:05 27.67122 -80.51098 32484 ft 495 kts 169°
2026-04-30 20:05 27.60589 -80.48822 31429 ft 489 kts 164°
2026-04-30 20:06 27.57401 -80.47518 30906 ft 485 kts 163°
2026-04-30 20:06 27.54248 -80.46204 30402 ft 481 kts 163°
2026-04-30 20:06 27.51119 -80.44914 29857 ft 478 kts 164°
2026-04-30 20:06 27.47966 -80.43638 28657 ft 487 kts 164°
2026-04-30 20:07 27.44696 -80.42340 27866 ft 508 kts 164°
2026-04-30 20:07 27.41353 -80.41024 27582 ft 519 kts 164°
2026-04-30 20:07 27.34511 -80.38321 27009 ft 520 kts 164°
2026-04-30 20:08 27.31105 -80.36974 26711 ft 517 kts 164°
2026-04-30 20:08 27.27717 -80.35636 26424 ft 515 kts 164°
2026-04-30 20:08 27.24341 -80.34304 26128 ft 513 kts 164°
2026-04-30 20:08 27.20979 -80.32981 25851 ft 511 kts 164°
2026-04-30 20:09 27.17619 -80.31667 25541 ft 510 kts 164°
2026-04-30 20:09 27.14265 -80.30365 25219 ft 509 kts 165°
2026-04-30 20:09 27.07686 -80.27817 24506 ft 496 kts 163°
2026-04-30 20:10 27.01212 -80.25308 23806 ft 490 kts 163°
2026-04-30 20:10 26.97999 -80.24064 23447 ft 488 kts 163°
2026-04-30 20:10 26.94786 -80.22820 23004 ft 487 kts 163°
2026-04-30 20:11 26.88401 -80.20349 22083 ft 485 kts 163°
2026-04-30 20:11 26.85209 -80.19119 21605 ft 484 kts 164°
2026-04-30 20:11 26.82023 -80.17927 21102 ft 480 kts 164°
2026-04-30 20:12 26.75747 -80.15619 20132 ft 469 kts 164°
2026-04-30 20:12 26.72664 -80.14480 19664 ft 464 kts 164°
2026-04-30 20:12 26.69600 -80.13400 19205 ft 459 kts 167°
2026-04-30 20:13 26.66515 -80.12557 18726 ft 455 kts 170°
2026-04-30 20:13 26.63423 -80.11788 18158 ft 454 kts 170°
2026-04-30 20:13 26.60351 -80.10996 17515 ft 453 kts 169°
2026-04-30 20:13 26.57291 -80.10202 16903 ft 451 kts 170°
2026-04-30 20:14 26.54246 -80.09443 16278 ft 446 kts 170°
2026-04-30 20:14 26.51227 -80.08698 15654 ft 441 kts 170°
2026-04-30 20:14 26.48262 -80.07962 15091 ft 434 kts 170°
2026-04-30 20:14 26.44898 -80.07134 14424 ft 428 kts 171°
2026-04-30 20:15 26.42422 -80.06598 13942 ft 424 kts 172°
2026-04-30 20:15 26.39570 -80.06014 13325 ft 420 kts 172°
2026-04-30 20:15 26.36686 -80.05337 12687 ft 417 kts 169°
2026-04-30 20:15 26.33887 -80.04544 12072 ft 413 kts 168°
2026-04-30 20:16 26.31158 -80.03752 11479 ft 395 kts 168°
2026-04-30 20:16 26.28576 -80.03024 11172 ft 372 kts 168°
2026-04-30 20:16 26.26083 -80.02382 10959 ft 367 kts 174°
2026-04-30 20:16 26.23596 -80.02431 10711 ft 344 kts 195°
2026-04-30 20:17 26.21388 -80.03032 10698 ft 313 kts 196°
2026-04-30 20:17 26.19344 -80.03537 10690 ft 302 kts 195°
2026-04-30 20:17 26.17269 -80.04026 10687 ft 301 kts 195°
2026-04-30 20:17 26.15248 -80.04495 10677 ft 300 kts 195°
2026-04-30 20:18 26.13191 -80.04970 10430 ft 305 kts 195°
2026-04-30 20:18 26.11101 -80.05448 10081 ft 307 kts 194°
2026-04-30 20:18 26.09014 -80.05924 9739 ft 306 kts 194°
2026-04-30 20:18 26.06931 -80.06400 9354 ft 305 kts 195°
2026-04-30 20:19 26.04865 -80.06916 8988 ft 304 kts 196°
2026-04-30 20:19 26.02796 -80.07285 8579 ft 302 kts 181°
2026-04-30 20:19 26.00752 -80.06752 8219 ft 306 kts 155°
2026-04-30 20:19 25.99086 -80.05303 7846 ft 306 kts 130°
2026-04-30 20:20 25.98134 -80.03255 7472 ft 295 kts 103°
2026-04-30 20:20 25.97992 -80.01017 7128 ft 290 kts 86°
2026-04-30 20:20 25.98164 -79.98790 6796 ft 290 kts 83°
2026-04-30 20:20 25.98392 -79.96567 6445 ft 286 kts 83°
2026-04-30 20:21 25.98624 -79.94419 6043 ft 274 kts 83°
2026-04-30 20:21 25.98852 -79.92366 5658 ft 260 kts 83°
2026-04-30 20:21 25.99074 -79.90413 5248 ft 249 kts 83°
2026-04-30 20:21 25.99295 -79.88528 5058 ft 249 kts 83°
2026-04-30 20:22 25.99524 -79.86623 5036 ft 246 kts 82°
2026-04-30 20:22 25.99712 -79.84764 4991 ft 237 kts 93°
2026-04-30 20:22 25.99277 -79.83038 5016 ft 236 kts 126°
2026-04-30 20:22 25.98079 -79.81817 5026 ft 236 kts 158°
2026-04-30 20:23 25.96507 -79.81478 5010 ft 229 kts 191°
2026-04-30 20:23 25.95076 -79.82109 5010 ft 220 kts 223°
2026-04-30 20:23 25.94233 -79.83470 5006 ft 214 kts 256°
2026-04-30 20:23 25.94090 -79.85100 5042 ft 214 kts 270°
2026-04-30 20:24 25.94211 -79.86757 5007 ft 218 kts 284°
2026-04-30 20:24 25.94736 -79.88344 5017 ft 220 kts 291°
2026-04-30 20:24 25.95329 -79.89899 4998 ft 216 kts 285°
2026-04-30 20:24 25.95561 -79.91538 4957 ft 215 kts 274°
2026-04-30 20:25 25.95738 -79.94942 4245 ft 226 kts 272°
2026-04-30 20:25 25.95826 -79.96694 3860 ft 227 kts 272°
2026-04-30 20:26 25.96041 -80.00099 3066 ft 213 kts 272°
2026-04-30 20:26 25.96283 -80.03065 3006 ft 173 kts 272°
2026-04-30 20:26 25.96408 -80.04364 2985 ft 172 kts 273°
2026-04-30 20:27 25.96626 -80.07039 3000 ft 174 kts 273°
2026-04-30 20:27 25.96771 -80.09722 2986 ft 173 kts 267°
2026-04-30 20:28 25.96707 -80.12384 3004 ft 173 kts 266°
2026-04-30 20:28 25.96455 -80.15037 2987 ft 170 kts 261°
2026-04-30 20:29 25.96107 -80.17677 2999 ft 176 kts 261°
2026-04-30 20:30 25.95761 -80.21715 2975 ft 171 kts 265°
2026-04-30 20:30 25.95611 -80.25715 2997 ft 178 kts 266°
2026-04-30 20:31 25.95462 -80.29804 3001 ft 176 kts 265°
2026-04-30 20:32 25.95180 -80.33970 3024 ft 183 kts 263°
2026-04-30 20:32 25.94940 -80.36827 3015 ft 185 kts 263°
2026-04-30 20:33 25.94826 -80.38229 2991 ft 181 kts 263°
2026-04-30 20:33 25.94605 -80.41038 3022 ft 185 kts 263°
2026-04-30 20:33 25.94483 -80.42469 3000 ft 186 kts 262°
2026-04-30 20:34 25.94210 -80.45321 2990 ft 184 kts 256°
2026-04-30 20:34 25.92410 -80.47057 3030 ft 186 kts 202°
2026-04-30 20:35 25.91183 -80.47577 3029 ft 189 kts 203°
2026-04-30 20:35 25.89952 -80.48089 3006 ft 187 kts 198°
2026-04-30 20:35 25.87783 -80.46992 3014 ft 195 kts 116°
2026-04-30 20:36 25.87354 -80.45534 2989 ft 201 kts 111°
2026-04-30 20:36 25.86823 -80.44080 2709 ft 203 kts 115°
2026-04-30 20:36 25.85618 -80.41395 2227 ft 180 kts 122°
2026-04-30 20:37 25.85020 -80.40217 1985 ft 163 kts 121°
2026-04-30 20:37 25.84498 -80.39189 1771 ft 146 kts 123°
2026-04-30 20:37 25.83977 -80.38178 1614 ft 154 kts 122°
2026-04-30 20:37 25.83446 -80.37137 1393 ft 155 kts 121°
2026-04-30 20:38 25.82920 -80.36104 1204 ft 153 kts 121°
2026-04-30 20:38 25.82406 -80.35091 997 ft 148 kts 121°
2026-04-30 20:38 25.81924 -80.34143 817 ft 139 kts 120°
2026-04-30 20:39 25.80977 -80.32279 471 ft 140 kts 120°
2026-04-30 20:39 25.80500 -80.31332 278 ft 142 kts 119°
2026-04-30 20:39 25.80012 -80.30383 90 ft 140 kts 122°
2026-04-30 20:40 25.79237 -80.28876 18 ft 71 kts 119°
2026-04-30 20:40 25.79061 -80.28537 19 ft 39 kts 120°
2026-04-30 20:40 25.78948 -80.28316 22 ft 30 kts 119°
2026-04-30 20:41 25.78741 -80.27914 20 ft 30 kts 119°
2026-04-30 20:41 25.78660 -80.27730 21 ft 23 kts 100°
2026-04-30 20:41 25.78698 -80.27610 20 ft 15 kts 57°
2026-04-30 20:41 25.78783 -80.27553 20 ft 15 kts
2026-04-30 20:42 25.78885 -80.27551 22 ft 14 kts 16°
2026-04-30 20:42 25.78919 -80.27455 20 ft 14 kts 85°
2026-04-30 20:42 25.78998 -80.27343 20 ft 7 kts 359°
2026-04-30 20:43 25.79006 -80.27343 20 ft 0 kts 360°